Weather History for Kenai, AK

Change the Weather History Date:

Thursday, November 21, 2013

  Actual Average Record
Temperature  
Mean Temperature 14 °F -  
Max Temperature 21 °F 28 °F 48 °F (1949)
Min Temperature 7 °F 14 °F -21 °F (1958)
Degree Days  
Heating Degree Days 51    
Moisture  
Dew Point 12 °F    
Average Humidity 86    
Maximum Humidity 100    
Minimum Humidity 62    
Precipitation  
Precipitation 0.00 in - - ()
Sea Level Pressure  
Sea Level Pressure 29.50 in    
Wind  
Wind Speed 20 mph (NNE)    
Max Wind Speed 32 mph    
Max Gust Speed 41 mph    
Visibility 3 miles    
Events Fog , Snow    
Averages and records for this station are not official NWS values.
T = Trace of Precipitation, MM = Missing Value Source: NWS Daily Summary

Daily Weather History Graph

Daily Weather History Graph

Search for Another Location

Airport:

Trip Planner

Search our weather history database for the weather conditions in past years. The results will help you decide how hot, cold, wet, or windy it might be!

Date:

Astronomy

Nov. 21, 2013 Rise Set
Actual Time 9:23 AM AKST 4:18 PM AKST
Civil Twilight 8:30 AM AKST 5:10 PM AKST
Nautical Twilight 7:36 AM AKST 6:04 PM AKST
Astronomical Twilight 6:45 AM AKST 6:55 PM AKST
Moon 8:16 PM AKST (11/21) 12:26 PM AKST (11/21)
Length of Visible Light 8h 40m
Length of Day
6h 55m
Waning Gibbous, 84% of the Moon is Illuminated
Nov 21
Waning Gibbous
Nov 25
Last Quarter
Dec 2
New
Dec 9
First Quarter
Dec 17
Full

Hourly Weather History & Observations

Time (AKST) Temp. Windchill Dew Point Humidity Pressure Visibility Wind Dir Wind Speed Gust Speed Precip Events Conditions
12:53 AM 7.0 °F -6.6 °F -2.0 °F 67% 29.99 in 10.0 mi NNE 9.2 mph - N/A   Partly Cloudy
1:53 AM 9.0 °F -7.9 °F -0.0 °F 67% 29.98 in 10.0 mi NNE 15.0 mph - N/A   Mostly Cloudy
3:53 AM 9.0 °F -5.9 °F -0.0 °F 67% 29.95 in 10.0 mi NE 11.5 mph - N/A   Mostly Cloudy
4:53 AM 8.1 °F -7.0 °F -0.0 °F 70% 29.92 in 10.0 mi NE 11.5 mph - N/A   Clear
5:53 AM 10.0 °F -6.5 °F 1.9 °F 70% 29.91 in 10.0 mi NNE 15.0 mph - N/A   Overcast
6:53 AM 10.0 °F -6.5 °F 1.0 °F 67% 29.88 in 10.0 mi NNE 15.0 mph - N/A   Mostly Cloudy
7:53 AM 12.0 °F -2.7 °F 3.0 °F 67% 29.87 in 10.0 mi NE 12.7 mph - N/A   Overcast
8:53 AM 12.0 °F -6.5 °F 1.9 °F 64% 29.84 in 10.0 mi NE 20.7 mph 25.3 mph N/A   Overcast
9:53 AM 12.0 °F -6.9 °F 1.9 °F 64% 29.81 in 10.0 mi NE 21.9 mph 29.9 mph N/A   Overcast
10:53 AM 12.9 °F -6.5 °F 1.9 °F 62% 29.78 in 10.0 mi NE 24.2 mph 33.4 mph N/A   Overcast
11:53 AM 12.9 °F -6.9 °F 1.9 °F 62% 29.74 in 10.0 mi NE 25.3 mph 34.5 mph 0.00 in   Overcast
12:08 PM 12.2 °F -7.9 °F 1.4 °F 62% 29.72 in 8.0 mi NE 25.3 mph 29.9 mph 0.00 in Snow Light Snow
12:18 PM 12.2 °F -7.1 °F 3.2 °F 67% 29.71 in 1.8 mi NNE 23.0 mph 32.2 mph 0.00 in Snow Light Snow
12:32 PM 12.2 °F -8.2 °F 6.8 °F 79% 29.69 in 0.8 mi NNE 26.5 mph 40.3 mph 0.00 in Snow Light Snow
12:53 PM 12.9 °F -8.6 °F 7.0 °F 77% 29.68 in 0.8 mi NNE 31.1 mph 38.0 mph 0.00 in Snow Snow
1:53 PM 12.9 °F -6.5 °F 10.0 °F 88% 29.62 in 0.8 mi NNE 24.2 mph 35.7 mph 0.00 in Snow Light Snow
2:11 PM 12.2 °F -8.9 °F 10.4 °F 92% 29.60 in 0.2 mi NNE 28.8 mph 41.4 mph 0.00 in Fog , Snow Snow
2:19 PM 12.2 °F -8.9 °F 10.4 °F 92% 29.59 in 0.8 mi NNE 28.8 mph 39.1 mph 0.00 in Snow Light Snow
2:30 PM 12.2 °F -7.9 °F 10.4 °F 92% 29.58 in 0.2 mi NNE 25.3 mph 38.0 mph 0.00 in Fog , Snow Heavy Snow
2:53 PM 14.0 °F -7.4 °F 12.0 °F 92% 29.56 in 0.2 mi NNE 32.2 mph 40.3 mph 0.00 in Fog Light Freezing Fog
3:53 PM 14.0 °F -5.8 °F 12.9 °F 95% 29.49 in 0.2 mi NNE 26.5 mph 35.7 mph N/A Fog Light Freezing Fog
4:05 PM 15.8 °F -4.7 °F 12.2 °F 86% 29.47 in 0.5 mi NNE 31.1 mph 39.1 mph N/A Fog Light Freezing Fog
4:26 PM 15.8 °F -4.1 °F 12.2 °F 86% 29.46 in 0.2 mi NNE 28.8 mph 38.0 mph 0.00 in Fog , Snow Heavy Snow
4:41 PM 15.8 °F -4.4 °F 14.0 °F 93% 29.44 in 0.5 mi NNE 29.9 mph 38.0 mph 0.00 in Fog Light Freezing Fog
4:53 PM 15.1 °F -4.0 °F 14.0 °F 95% 29.44 in 0.5 mi NNE 25.3 mph 38.0 mph 0.00 in Fog Light Freezing Fog
5:21 PM 15.8 °F -4.1 °F 14.0 °F 93% 29.42 in 0.2 mi NE 28.8 mph 41.4 mph 0.00 in Fog , Snow Heavy Snow
5:43 PM 15.8 °F -1.9 °F 15.8 °F 100% 29.39 in 0.5 mi NNE 21.9 mph 33.4 mph 0.00 in Fog , Snow Heavy Snow
5:53 PM 16.0 °F -3.5 °F 15.1 °F 96% 29.39 in 0.5 mi NNE 27.6 mph 34.5 mph 0.00 in Fog , Snow Heavy Snow
6:08 PM 15.8 °F -3.4 °F 15.8 °F 100% 29.37 in 0.5 mi NNE 26.5 mph 38.0 mph 0.00 in Fog , Snow Heavy Snow
6:53 PM 18.0 °F -0.5 °F 17.1 °F 96% 29.34 in 0.5 mi NNE 26.5 mph 39.1 mph 0.00 in Fog , Snow Heavy Snow
7:06 PM 17.6 °F 0.9 °F 17.6 °F 100% 29.32 in 1.5 mi NNE 20.7 mph 32.2 mph 0.00 in Snow Heavy Snow
7:36 PM 17.6 °F 1.3 °F 17.6 °F 100% 29.30 in 0.8 mi NNE 19.6 mph 31.1 mph 0.00 in Snow Heavy Snow
7:53 PM 19.0 °F 1.3 °F 18.0 °F 96% 29.29 in 0.8 mi NNE 25.3 mph 32.2 mph 0.00 in Snow Heavy Snow
8:11 PM 19.4 °F 2.5 °F 17.6 °F 93% 29.26 in 0.5 mi NNE 23.0 mph 32.2 mph 0.00 in Fog , Snow Heavy Snow
8:53 PM 19.9 °F 4.8 °F 19.0 °F 96% 29.26 in 0.5 mi NNE 18.4 mph - 0.00 in Fog , Snow Heavy Snow
9:53 PM 19.9 °F 3.9 °F 19.9 °F 100% 29.22 in 0.2 mi North 20.7 mph 27.6 mph 0.00 in Fog Light Freezing Fog
10:06 PM 19.4 °F 3.6 °F 19.4 °F 100% 29.19 in 0.5 mi NNE 19.6 mph 27.6 mph N/A Fog Light Freezing Fog
10:20 PM 21.2 °F 5.2 °F 19.4 °F 93% 29.18 in 1.5 mi NE 21.9 mph 29.9 mph N/A   Overcast
10:29 PM 21.2 °F 7.8 °F 19.4 °F 93% 29.18 in 3.0 mi NE 15.0 mph 27.6 mph N/A   Overcast
10:53 PM 21.9 °F 5.5 °F 19.9 °F 92% 29.19 in 2.5 mi NNE 24.2 mph 38.0 mph N/A   Overcast
10:59 PM 21.2 °F 4.5 °F 19.4 °F 93% 29.18 in 3.0 mi NNE 24.2 mph 27.6 mph 0.00 in Snow Light Snow
11:12 PM 21.2 °F 3.3 °F 21.2 °F 100% 29.18 in 2.5 mi NNE 28.8 mph 34.5 mph 0.00 in Snow Light Snow
11:23 PM 21.2 °F 3.9 °F 21.2 °F 100% 29.18 in 3.0 mi NNE 26.5 mph 31.1 mph 0.00 in Snow Light Snow
11:38 PM 21.2 °F 3.9 °F 21.2 °F 100% 29.17 in 2.5 mi NNE 26.5 mph 32.2 mph 0.00 in Snow Light Snow
11:50 PM 21.2 °F 3.9 °F 21.2 °F 100% 29.17 in 3.0 mi NNE 26.5 mph 32.2 mph 0.00 in   Overcast
11:53 PM 21.9 °F 4.2 °F 21.0 °F 96% 29.17 in 3.0 mi NNE 28.8 mph 33.4 mph 0.00 in   Overcast